{"data":{"norad_id":59740,"epoch":"2026-09-21T10:31:19.276320Z","epoch_age_seconds":90232,"freshness":"FRESH","line1":"1 59740U 24090L   26264.43841755  .00000093  00000+0  12911-4 0  9996","line2":"2 59740  43.0028 158.3303 0001218 272.1093  87.9619 15.27575745133378","mean_motion":15.27575745,"eccentricity":0.0001218,"inclination_deg":43.0028,"raan_deg":158.3303,"arg_perigee_deg":272.1093,"mean_anomaly_deg":87.9619,"bstar":1.2911e-5,"rev_number":13337,"period_min":94.26701128984,"perigee_km":482.2261430516,"apogee_km":483.89753108831,"semimajor_km":6861.19883707,"source":"CELESTRAK","updated_at":"2026-09-22T09:00:49.063615Z"}}